GFSFLT1_850_temp_327.txt.gz
Temp
25 24 23 22 21 18 16 14 13 14 14 14 14 14 13 14 13 13 13 14 14 15 15 16 16 15 14 14 14 13 13 13
24 24 23 22 21 18 16 14 13 14 14 14 14 14 13 13 14 13 13 12 14 14 14 14 15 15 15 14 13 12 12 12
24 24 23 22 21 18 17 14 13 13 13 14 14 14 13 14 13 13 12 13 13 14 15 14 14 15 14 14 13 13 12 13
23 23 23 22 21 19 17 14 13 13 13 13 13 15 15 13 13 12 13 12 13 14 14 14 14 15 14 13 13 13 14 13
21 22 23 22 21 19 17 15 13 13 12 13 13 15 15 15 14 13 13 13 13 13 14 14 14 14 14 13 13 13 12 12
21 22 22 23 21 19 17 15 13 13 12 13 13 15 15 15 14 13 13 13 13 13 13 14 14 14 14 14 12 12 12 12
21 21 22 22 21 18 17 15 13 14 12 12 13 14 15 15 15 14 13 13 13 13 13 13 13 14 14 14 13 13 13 13
13 18 22 23 21 18 17 15 14 14 13 12 13 14 15 15 14 14 13 13 13 13 13 13 13 14 14 13 13 13 13 13
6 8 12 18 22 17 15 15 13 13 14 13 13 14 14 15 14 14 14 13 13 13 13 13 13 13 13 13 13 13 13 13
3 5 7 10 16 19 16 14 14 14 13 13 13 13 14 14 14 14 14 14 13 13 13 13 13 13 13 13 13 13 13 13
-0 2 3 6 11 17 17 16 14 13 13 13 13 13 13 14 15 14 14 14 14 13 13 13 13 13 13 13 13 13 13 13
-1 -0 2 4 9 15 17 15 14 13 13 13 13 13 12 13 14 14 14 14 14 14 13 13 13 13 13 13 13 13 13 13
-1 -1 0 3 6 13 16 15 14 15 14 13 13 13 12 12 13 14 14 14 14 14 13 13 13 13 13 13 13 13 13 13
-1 -1 -1 2 4 8 12 14 15 15 14 14 13 13 12 12 13 14 13 14 14 14 14 14 13 13 13 13 13 13 13 14
-2 -1 -1 2 2 4 9 12 15 15 14 14 13 13 12 12 12 13 13 14 14 14 14 14 14 14 13 13 13 13 13 13
-3 -2 -2 -0 0 2 5 10 13 13 14 13 14 14 12 11 11 12 13 13 13 14 14 14 14 13 13 13 13 13 13 13
-3 -3 -2 -2 -0 0 1 4 10 13 13 14 13 15 13 12 11 12 12 13 13 13 13 13 13 13 13 13 13 13 13 13
-3 -3 -2 -2 -2 -1 -0 1 3 10 12 12 13 14 13 12 11 11 12 12 12 12 13 13 13 13 13 13 13 13 13 12
-3 -3 -3 -2 -2 -1 -1 -0 1 3 7 10 12 12 12 12 12 12 11 12 12 12 13 12 12 12 13 13 12 12 12 12

GFSFLT1_850_temp_333.txt.gz
Temp
20 22 23 24 22 20 19 18 18 17 17 15 14 14 14 13 13 13 13 12 13 13 15 14 14 14 13 13 13 13 12 12
14 15 18 18 22 23 19 19 18 17 16 15 14 14 14 13 13 12 13 11 11 12 14 14 14 13 14 14 14 13 12 12
8 9 13 15 19 21 19 20 18 17 17 16 15 14 14 14 13 13 12 12 12 13 14 13 14 13 14 14 13 12 12 11
4 4 6 11 13 14 17 20 19 18 18 16 14 14 14 13 13 13 12 12 12 12 13 13 14 13 13 14 13 13 13 11
1 2 4 7 10 12 14 16 20 19 18 16 14 14 14 13 13 13 12 12 13 13 13 15 14 13 13 13 14 14 15 13
-0 -0 1 4 8 10 13 13 17 19 18 18 16 14 14 13 13 13 13 13 14 12 13 14 12 12 12 12 13 14 14 15
-1 -1 -1 2 6 9 10 12 13 18 19 18 17 16 14 13 13 14 13 13 13 12 13 13 12 12 12 14 14 15 14 14
-2 -2 -2 -1 2 6 8 8 10 11 16 17 17 16 15 14 13 13 13 12 12 13 13 13 14 13 13 15 15 15 15 15
-2 -2 -2 -1 -0 1 4 6 10 9 13 13 17 16 16 14 15 13 14 14 13 14 14 13 14 14 13 14 15 14 14 14
-2 -2 -2 -2 -1 0 1 4 9 11 11 12 13 15 15 14 14 14 15 14 14 14 14 14 13 13 13 14 14 14 14 14
-3 -2 -2 -2 -2 -1 1 2 8 11 12 13 13 15 16 15 14 13 14 15 15 14 14 14 14 13 14 14 14 14 14 14
-4 -3 -3 -3 -2 -2 -1 2 4 9 11 12 12 13 14 14 14 13 14 15 14 14 14 13 14 13 13 14 13 14 14 14
-4 -4 -3 -3 -3 -2 -2 -0 2 6 9 11 12 13 13 14 14 14 14 15 15 14 14 13 13 14 13 14 14 13 14 14
-4 -4 -4 -3 -3 -3 -2 -2 0 2 7 10 13 12 13 14 14 14 14 14 14 14 14 13 13 14 14 13 14 14 14 14
-4 -5 -4 -3 -3 -3 -2 -2 -1 -0 3 9 11 12 13 14 14 14 14 14 14 14 14 14 13 13 13 13 13 14 13 13
-3 -3 -4 -4 -3 -3 -2 -1 -2 -1 -0 5 9 11 11 13 14 14 13 14 14 14 14 13 13 13 13 13 13 13 13 13
-2 -3 -3 -4 -3 -4 -3 -2 -2 -2 -1 1 4 9 12 12 13 13 13 13 14 14 13 13 13 13 13 13 13 13 13 13
-2 -2 -3 -3 -3 -4 -3 -3 -3 -2 -2 -1 2 6 10 9 12 12 12 13 13 13 14 13 13 13 14 14 14 13 13 13
-2 -2 -2 -2 -3 -4 -4 -3 -3 -3 -2 -1 -0 3 5 8 11 11 12 12 12 12 13 14 13 14 14 14 13 13 14 14

GFSFLT1_850_temp_336.txt.gz
Temp
4 8 10 12 14 14 18 19 18 18 16 16 16 15 14 14 13 13 12 13 12 12 13 14 14 14 13 13 13 12 13 12
3 6 8 11 12 12 14 17 18 17 16 15 16 15 14 14 13 13 12 13 12 12 12 14 14 14 13 13 13 12 12 12
1 4 7 8 8 10 13 14 15 18 18 17 18 17 16 14 13 13 13 12 12 11 13 14 14 14 14 13 13 12 12 12
-1 -1 3 4 7 8 10 13 14 14 17 15 14 14 14 15 13 13 13 12 12 11 12 13 13 12 13 13 13 13 12 12
-1 -2 -1 1 3 5 8 11 13 14 14 14 15 15 15 16 14 13 13 12 12 12 12 12 11 11 11 13 14 14 14 13
-2 -2 -2 -1 0 2 5 9 11 13 14 14 14 14 16 15 14 13 13 12 12 11 11 11 13 11 11 12 13 13 13 13
-2 -2 -2 -1 -0 0 5 6 9 11 13 13 14 14 14 13 13 13 13 13 12 11 11 11 11 11 11 12 12 12 13 13
-3 -2 -2 -2 -1 -0 3 4 7 9 12 13 13 14 14 16 15 15 13 13 12 12 12 12 11 11 11 11 12 12 12 12
-4 -3 -3 -2 -2 -1 0 2 4 8 10 11 12 13 13 15 16 17 14 14 13 13 12 12 12 12 12 12 12 13 13 13
-4 -4 -3 -3 -3 -2 -1 -0 2 6 8 10 12 12 13 13 16 13 14 15 14 14 13 12 12 13 13 13 13 14 14 14
-4 -4 -4 -3 -3 -2 -2 -1 1 3 7 9 10 11 13 13 14 15 14 15 14 14 14 13 12 12 12 13 14 14 14 14
-4 -4 -4 -4 -3 -3 -2 -1 -0 3 7 10 11 12 13 12 13 14 15 15 14 14 14 14 13 12 12 12 12 12 13 14
-3 -3 -4 -4 -4 -4 -3 -2 -1 1 2 7 11 11 11 12 12 13 14 14 15 13 14 14 13 13 13 12 12 13 13 14
-3 -3 -3 -4 -4 -4 -3 -2 -2 -1 1 3 6 9 10 11 12 12 12 13 14 15 14 14 14 13 13 13 13 13 13 14
-2 -2 -3 -3 -4 -4 -4 -2 -2 -1 -1 1 3 6 8 11 11 12 12 12 13 14 14 15 14 14 13 13 13 12 13 13
-2 -2 -2 -3 -3 -3 -2 -2 -1 -1 -2 -1 1 2 5 8 11 11 12 13 12 14 14 14 15 14 13 12 12 12 13 13
-2 -2 -2 -2 -2 -2 -3 -2 -2 -1 -2 -2 -1 2 3 5 9 10 11 12 12 12 13 13 14 14 14 13 13 13 13 13
-2 -2 -2 -2 -2 -2 -2 -3 -2 -1 -1 -2 -2 -1 1 3 6 8 11 11 12 12 13 12 13 14 14 13 13 13 13 14
-2 -2 -2 -2 -2 -2 -2 -3 -3 -1 -1 -2 -2 -2 -2 -0 4 7 10 11 11 11 12 12 12 13 14 14 13 13 12 13

GFSFLT1_850_temp_339.txt.gz
Temp
2 4 6 7 7 9 12 13 14 14 15 16 14 13 13 13 14 13 13 13 12 12 12 12 12 11 12 12 13 13 12 12
0 2 4 6 7 8 10 12 13 14 14 14 14 14 14 13 13 13 13 13 13 12 13 12 13 12 13 12 12 13 12 12
-1 0 1 2 4 6 7 9 12 13 13 14 14 13 15 13 13 13 13 13 13 12 13 14 13 13 13 12 12 12 12 12
-2 -2 -1 -0 1 4 5 8 10 12 13 13 14 14 14 14 14 14 13 12 13 12 13 14 13 14 13 13 12 12 12 12
-3 -2 -2 -2 -1 1 3 5 8 11 12 13 13 14 13 16 14 14 13 12 12 12 13 12 13 14 14 13 13 13 12 12
-4 -3 -3 -2 -1 -1 1 4 7 9 10 12 12 13 13 14 13 13 13 13 12 12 12 12 13 14 13 12 12 12 13 13
-4 -3 -3 -3 -2 -1 -0 3 5 7 9 12 12 13 13 13 13 13 13 13 12 12 12 11 12 13 13 11 12 12 13 13
-4 -4 -4 -3 -3 -2 -1 1 4 6 7 10 12 12 12 13 13 13 12 12 12 13 12 11 12 12 12 11 11 11 12 12
-4 -4 -4 -4 -3 -3 -2 -1 1 3 5 8 10 12 12 12 13 13 13 13 13 13 12 12 11 11 12 10 10 11 12 12
-3 -4 -4 -4 -4 -3 -3 -1 -0 1 3 5 8 11 10 11 12 13 14 13 13 14 13 13 12 11 11 11 11 11 11 12
-3 -3 -4 -4 -4 -4 -3 -2 -1 0 1 3 6 9 10 11 12 12 13 12 12 12 13 13 12 12 12 11 11 11 11 11
-3 -3 -3 -4 -3 -3 -3 -2 -2 -0 1 1 4 7 9 10 12 12 12 12 12 11 12 12 12 12 12 12 11 11 11 11
-3 -3 -2 -3 -2 -3 -3 -3 -2 -1 -0 0 1 3 6 9 11 12 12 13 12 11 12 12 12 12 13 11 12 11 12 12
-2 -3 -2 -2 -3 -2 -3 -3 -2 -2 -1 -0 0 2 4 7 10 11 11 12 12 12 12 12 12 12 12 13 11 12 13 13
-3 -2 -2 -2 -2 -2 -2 -3 -2 -2 -2 -1 -0 0 2 4 8 10 11 11 12 12 12 12 12 12 11 12 12 11 12 13
-3 -2 -3 -3 -2 -2 -2 -3 -2 -3 -2 -2 -0 -0 1 2 6 8 10 11 12 12 12 12 12 11 12 11 11 12 11 11
-3 -3 -3 -3 -3 -3 -3 -3 -3 -3 -3 -2 -1 0 1 1 3 7 9 10 11 11 12 11 12 12 12 12 12 12 11 11
-3 -3 -3 -3 -3 -3 -3 -3 -3 -3 -3 -3 -2 -1 -1 -0 1 4 6 9 10 11 12 12 12 12 12 12 12 12 13 12
-4 -4 -4 -4 -3 -3 -3 -3 -3 -3 -3 -3 -2 -2 -2 -2 -1 1 4 6 8 10 11 11 12 12 12 12 12 12 11 13